2023/01/05 00:00:00,81.6,-2.6
2023/01/05 00:10:00,81.5,-2.9
2023/01/05 00:20:00,81.4,-3.3
2023/01/05 00:30:00,81.3,-3.0
2023/01/05 00:40:00,81.3,-3.0
2023/01/05 00:50:00,81.2,-2.8
2023/01/05 01:00:00,81.1,-2.9
2023/01/05 01:10:00,81.1,-3.1
2023/01/05 01:20:00,81.0,-3.2
2023/01/05 01:30:00,80.9,-3.0
2023/01/05 01:40:00,80.8,-2.9
2023/01/05 01:50:00,80.9,-2.8
2023/01/05 02:00:00,81.2,-2.7
2023/01/05 02:10:00,81.2,-2.9
2023/01/05 02:20:00,81.4,-2.9
2023/01/05 02:30:00,81.6,-2.8
2023/01/05 02:40:00,81.9,-2.8
2023/01/05 02:50:00,82.0,-2.6
2023/01/05 03:00:00,82.4,-2.6
2023/01/05 03:10:00,82.5,-2.7
2023/01/05 03:20:00,82.8,-2.6
2023/01/05 03:30:00,83.3,-2.4
2023/01/05 03:40:00,83.4,-2.3
2023/01/05 03:50:00,83.4,-2.4
2023/01/05 04:00:00,83.7,-2.2
2023/01/05 04:10:00,84.0,-2.4
2023/01/05 04:20:00,84.3,-2.4
2023/01/05 04:30:00,84.4,-2.3
2023/01/05 04:40:00,84.8,-2.4
2023/01/05 04:50:00,85.5,-2.5
2023/01/05 05:00:00,85.8,-2.4
2023/01/05 05:10:00,85.8,-2.4
2023/01/05 05:20:00,86.0,-2.4
2023/01/05 05:30:00,86.1,-2.4
2023/01/05 05:40:00,86.2,-1.9
2023/01/05 05:50:00,86.4,-2.4
2023/01/05 06:00:00,86.7,-2.2
2023/01/05 06:10:00,86.6,-2.2
2023/01/05 06:20:00,86.5,-2.2
2023/01/05 06:30:00,86.5,-2.2
2023/01/05 06:40:00,86.4,-2.2
2023/01/05 06:50:00,86.7,-2.1
2023/01/05 07:00:00,86.8,-2.3
2023/01/05 07:10:00,86.7,-2.4
2023/01/05 07:20:00,86.6,-2.3
2023/01/05 07:30:00,86.8,-2.2
2023/01/05 07:40:00,87.3,-2.4
2023/01/05 07:50:00,87.4,-2.1
2023/01/05 08:00:00,87.6,-2.1
2023/01/05 08:10:00,87.5,-1.9
2023/01/05 08:20:00,87.5,-1.6
2023/01/05 08:30:00,87.6,-1.3
2023/01/05 08:40:00,87.6,-1.6
2023/01/05 08:50:00,88.0,-1.5
2023/01/05 09:00:00,88.6,-1.4
2023/01/05 09:10:00,88.7,-1.1
2023/01/05 09:20:00,88.7,-1.2
2023/01/05 09:30:00,88.9,-1.2
2023/01/05 09:40:00,89.1,-0.8
2023/01/05 09:50:00,88.9,-0.4
2023/01/05 10:00:00,88.8, 0.0
2023/01/05 10:10:00,88.7,-0.6
2023/01/05 10:20:00,88.6,-0.2
2023/01/05 10:30:00,88.5, 0.3
2023/01/05 10:40:00,88.3, 0.4
2023/01/05 10:50:00,88.2, 1.2
2023/01/05 11:00:00,88.2, 1.5
2023/01/05 11:10:00,88.1, 1.4
2023/01/05 11:20:00,88.1, 0.7
2023/01/05 11:30:00,88.1,-0.1
2023/01/05 11:40:00,88.1, 0.1
2023/01/05 11:50:00,88.1,-0.4
2023/01/05 12:00:00,88.1,-0.4
2023/01/05 12:10:00,88.0, 0.2
2023/01/05 12:20:00,87.9, 0.3
2023/01/05 12:30:00,88.0, 0.1
2023/01/05 12:40:00,88.2,-0.1
2023/01/05 12:50:00,88.2,-0.2
2023/01/05 13:00:00,88.4,-0.6
2023/01/05 13:10:00,88.6,-0.4
2023/01/05 13:20:00,88.4,-0.6
2023/01/05 13:30:00,88.4,-0.7
2023/01/05 13:40:00,88.4,-0.3
2023/01/05 13:50:00,88.6,-0.5
2023/01/05 14:00:00,88.6,-0.7
2023/01/05 14:10:00,88.6,-0.7
2023/01/05 14:20:00,88.7,-0.7
2023/01/05 14:30:00,88.8,-0.7
2023/01/05 14:40:00,89.3,-0.5
2023/01/05 14:50:00,89.5,-0.4
2023/01/05 15:00:00,89.4,-0.1
2023/01/05 15:10:00,89.3,-0.4
2023/01/05 15:20:00,89.3,-0.2
2023/01/05 15:30:00,89.2,-0.5
2023/01/05 15:40:00,89.2,-0.6
2023/01/05 15:50:00,89.2,-0.7
2023/01/05 16:00:00,89.2,-0.6
2023/01/05 16:10:00,89.2, 0.1
2023/01/05 16:20:00,89.1, 0.8
2023/01/05 16:30:00,89.1,-0.1
2023/01/05 16:40:00,89.0,-0.5
2023/01/05 16:50:00,88.9,-0.7
2023/01/05 17:00:00,88.7,-0.7
2023/01/05 17:10:00,88.8,-0.5
2023/01/05 17:20:00,88.7,-1.0
2023/01/05 17:30:00,88.7,-1.1
2023/01/05 17:40:00,88.6,-1.1
2023/01/05 17:50:00,88.6,-1.1
2023/01/05 18:00:00,88.9,-1.2
2023/01/05 18:10:00,88.8,-1.2
2023/01/05 18:20:00,88.8,-1.2
2023/01/05 18:30:00,88.7,-1.2
2023/01/05 18:40:00,88.8,-1.2
2023/01/05 18:50:00,89.0,-1.1
2023/01/05 19:00:00,88.9,-1.1
2023/01/05 19:10:00,88.8,-1.2
2023/01/05 19:20:00,88.7,-1.3
2023/01/05 19:30:00,88.7,-1.1
2023/01/05 19:40:00,88.6,-1.1
2023/01/05 19:50:00,88.6,-1.2
2023/01/05 20:00:00,88.5,-1.2
2023/01/05 20:10:00,88.5,-1.2
2023/01/05 20:20:00,88.6,-1.3
2023/01/05 20:30:00,88.9,-1.2
2023/01/05 20:40:00,88.9,-1.2
2023/01/05 20:50:00,88.9,-1.2
2023/01/05 21:00:00,89.2,-1.4
2023/01/05 21:10:00,89.2,-1.2
2023/01/05 21:20:00,89.2,-1.4
2023/01/05 21:30:00,89.4,-1.3
2023/01/05 21:40:00,89.4,-1.4
2023/01/05 21:50:00,89.3,-1.6
2023/01/05 22:00:00,89.4,-1.3
2023/01/05 22:10:00,89.5,-1.3
2023/01/05 22:20:00,89.4,-1.2
2023/01/05 22:30:00,89.3,-1.4
2023/01/05 22:40:00,89.2,-1.2
2023/01/05 22:50:00,89.1,-1.2
2023/01/05 23:00:00,89.0,-1.4
2023/01/05 23:10:00,88.9,-1.3
2023/01/05 23:20:00,88.9,-1.4
2023/01/05 23:30:00,88.8,-1.4
2023/01/05 23:40:00,88.8,-1.3
2023/01/05 23:50:00,88.7,-1.4
